Tracking 18980 objects as of 18-Feb-2018
HD Live streaming from Space Station
objects crossing your sky now

NOAA 16 DEB

Track NOAA 16 DEB now!
10-day predictions


NORAD ID: 41156
Int'l Code: 2000-055CP
Perigee: 769.8 km
Apogee: 853.5 km
Inclination: 98.9 °
Period: 101.0 minutes
Semi major axis: 7182 km
RCS: Unknown
Launch date: September 21, 2000
Source: United States (US)
Launch site: AIR FORCE WESTERN TEST RANGE (AFWTR)

Note: This is SATELLITE DEBRIS
aabbcc
Your satellite tracking list
Your tracking list is empty




NASA's NSSDC Master Catalog

Two Line Element Set (TLE):
1 41156U 00055CP  18047.50234970 +.00000977 +00000-0 +42005-3 0  9994
2 41156 098.9055 142.5744 0058215 290.3345 069.1586 14.26182271115083
Source of the keplerian elements: AFSPC